Wind_Speed
22 22 22 22 21 22 23 23 23 23 24 24 25 26 26 26 26 27 27 27 27 27 26 27 27 27 27 27 28 28 28 27 27 27 27 27 27 27
23 23 23 23 23 23 24 24 24 24 25 25 26 27 27 27 27 28 28 28 28 28 28 28 28 29 28 28 28 29 28 29 28 28 28 28 28 27
25 24 23 24 24 25 26 26 26 27 26 26 27 27 28 28 28 28 29 29 29 29 30 29 29 29 29 29 29 30 30 29 29 29 28 29 28 28
26 26 25 25 26 27 27 28 28 27 27 26 27 28 28 28 28 28 28 29 30 30 30 29 29 29 30 30 30 31 30 30 29 29 29 29 29 28
28 27 27 28 28 29 29 29 28 28 29 28 28 28 28 29 29 28 29 30 30 30 30 30 30 30 30 30 30 30 30 29 29 28 28 29 28 28
27 27 28 28 29 29 29 29 30 30 30 30 30 30 30 30 29 29 29 29 29 30 30 30 30 30 30 30 29 29 29 29 29 29 29 29 29 28
27 28 28 29 29 30 30 30 31 31 31 32 32 31 31 31 31 31 30 30 30 30 29 29 30 30 30 30 29 29 29 29 29 28 28 27 27 28
27 28 29 29 30 30 31 31 32 32 32 32 32 32 32 32 32 31 31 31 31 30 30 29 29 30 29 29 29 30 29 29 29 28 28 28 28 28
29 29 30 31 32 32 32 32 32 32 32 32 32 32 32 32 32 31 31 31 31 30 30 29 29 29 29 28 28 28 29 29 29 29 29 28 29 29
30 31 32 32 32 32 32 32 33 32 32 32 32 32 32 32 32 32 31 31 30 30 30 29 29 29 29 29 29 29 28 28 28 28 28 28 28 28
31 32 32 32 32 33 32 32 32 32 31 31 31 31 31 31 31 31 31 31 30 30 30 30 29 29 29 28 27 27 27 26 26 27 27 27 27 26
32 31 32 32 33 32 31 31 31 31 31 31 31 30 30 31 31 31 31 30 30 30 29 29 28 28 28 28 27 26 25 25 25 25 25 26 26 25
31 31 31 31 32 31 31 30 30 30 30 30 31 31 30 30 30 30 30 29 29 28 28 28 27 27 27 27 26 26 25 25 25 24 23 23 24 23
31 31 31 31 31 31 31 30 30 30 30 30 30 29 30 29 29 28 28 27 27 27 26 26 26 26 26 26 26 25 25 25 25 24 24 23 23 23
32 32 31 31 30 30 30 30 30 30 30 30 29 28 29 28 28 27 26 26 26 26 25 25 25 25 26 25 25 25 25 24 24 23 23 22 22 22
31 31 31 30 30 30 30 30 30 30 30 30 29 28 27 27 26 26 25 25 24 24 24 24 23 24 24 24 24 24 24 24 24 23 22 22 22 22
31 31 31 30 30 30 30 29 29 29 29 29 29 28 27 25 25 25 24 23 23 23 22 23 22 22 22 23 23 23 23 23 23 22 22 22 22 21
31 30 30 30 29 29 29 28 29 29 28 28 27 26 26 25 24 24 24 23 22 22 22 21 21 21 21 21 21 21 22 22 21 22 23 23 23 23
30 29 29 29 28 28 28 28 28 28 27 26 26 25 25 24 24 23 23 23 22 21 21 21 21 20 20 20 20 21 21 21 21 22 23 23 23 23
29 29 28 27 27 27 27 27 27 26 26 25 25 24 24 23 23 23 23 22 21 21 21 21 21 20 20 20 20 19 20 20 20 21 22 22 22 23
28 27 27 27 26 25 25 25 25 25 24 24 23 23 22 22 22 22 22 21 21 20 20 20 20 20 19 19 19 19 19 19 19 20 21 22 22 22
27 26 26 26 25 24 24 24 24 23 23 23 22 22 22 21 21 20 19 20 20 19 19 19 19 19 19 18 18 18 18 18 19 19 20 21 21 22
26 26 25 25 24 24 24 24 23 23 22 22 22 21 21 20 19 19 19 19 19 18 18 18 18 18 19 19 19 19 19 18 19 19 20 21 21 22
Wind_Direction
289 291 289 289 288 287 288 287 286 285 286 285 282 283 282 282 282 281 280 278 277 276 275 273 272 272 271 270 271 270 268 265 264 263 262 263 263 263
289 289 289 290 288 287 288 288 289 290 289 286 283 283 283 282 281 281 280 278 277 275 275 274 273 272 271 271 271 268 267 265 265 264 262 262 262 261
288 287 288 288 288 288 288 288 288 290 289 288 287 284 283 282 281 280 280 279 277 276 274 273 272 273 272 270 270 267 266 266 265 263 261 260 261 262
290 290 288 287 287 287 287 288 288 289 289 288 288 287 285 284 283 283 282 280 277 275 274 273 273 272 273 272 269 268 268 266 266 263 260 259 259 260
292 292 291 289 288 288 287 288 288 289 289 288 288 289 287 286 284 283 282 280 277 276 273 272 273 273 273 272 271 269 267 266 265 263 260 257 257 258
294 293 293 291 290 290 288 288 289 288 288 288 287 287 287 285 285 284 282 279 278 276 275 274 274 274 274 273 273 271 268 266 265 263 260 258 257 257
293 293 293 292 291 291 290 290 290 288 288 289 287 285 285 284 284 283 281 279 278 277 276 276 275 275 274 274 273 271 269 264 263 263 259 258 256 256
293 293 293 292 293 293 291 291 291 290 289 288 286 285 284 283 283 282 280 278 277 277 276 275 276 275 274 272 271 270 268 264 260 260 259 258 256 256
293 293 294 295 294 294 292 291 290 291 290 289 287 286 285 283 282 282 281 279 277 275 275 274 275 275 273 271 270 270 267 264 261 259 258 258 256 255
292 293 294 295 295 293 292 291 290 291 291 290 289 287 286 284 283 282 281 280 277 274 274 274 273 272 272 270 269 267 266 264 262 259 256 255 254 252
293 293 294 295 295 293 292 292 291 291 290 290 289 287 286 285 284 283 282 280 277 275 273 272 271 271 270 270 268 265 264 262 259 256 253 251 250 249
295 294 294 294 292 294 294 292 291 290 290 289 289 288 288 287 285 284 282 281 279 276 272 271 270 269 269 269 266 264 262 259 256 256 252 249 247 246
294 295 294 294 294 294 294 293 292 292 291 291 291 289 288 288 287 284 282 281 280 278 274 271 269 267 267 267 265 264 260 257 255 254 251 248 246 245
295 296 296 296 295 294 293 293 292 293 293 294 294 291 289 287 287 285 282 280 279 278 275 271 269 268 267 265 263 262 260 259 253 250 249 246 244 244
294 295 297 297 295 294 293 292 292 292 293 294 294 292 290 287 285 283 281 281 279 277 275 273 269 266 266 264 261 260 259 257 249 247 246 243 243 243
298 297 298 298 296 294 294 293 293 292 291 291 291 291 289 286 285 283 283 281 279 277 274 272 269 266 264 262 261 259 257 254 247 243 241 240 241 240
299 298 298 298 298 296 296 295 294 293 291 290 290 289 287 286 285 285 284 283 280 276 273 271 269 267 263 260 259 258 254 250 244 240 240 240 238 238
300 299 299 299 298 296 296 295 293 293 291 290 290 288 286 284 283 283 283 280 279 276 272 270 269 267 261 258 257 254 250 245 241 240 241 241 240 238
300 300 300 300 298 297 295 295 294 293 291 290 290 288 285 283 281 280 281 279 276 274 271 269 267 265 260 255 254 252 249 245 242 241 242 242 241 239
300 300 300 299 297 296 296 295 295 294 292 290 289 288 286 283 280 279 278 277 274 272 269 267 264 261 258 254 251 249 247 245 243 243 242 241 241 240
300 299 300 299 297 296 295 296 295 294 294 293 291 289 287 284 282 281 278 275 274 271 268 264 260 258 256 253 249 248 247 246 246 244 243 242 241 240
300 299 299 298 297 295 295 296 296 295 295 293 292 291 289 285 283 281 279 275 273 270 267 264 260 257 254 252 250 249 248 246 245 245 245 244 242 240
302 301 301 301 299 297 296 296 295 295 295 294 293 293 291 286 283 282 280 277 273 268 265 263 260 257 253 250 248 246 246 246 246 245 245 244 243 241
Height
5834 5832 5830 5829 5827 5825 5824 5822 5822 5820 5819 5816 5814 5812 5811 5809 5807 5806 5805 5804 5803 5802 5802 5801 5801 5800 5800 5799 5799 5798 5798 5798 5798 5799 5800 5801 5802 5803
5829 5827 5825 5823 5821 5819 5818 5816 5815 5813 5812 5810 5808 5806 5804 5802 5800 5799 5797 5796 5796 5795 5794 5793 5792 5792 5791 5791 5790 5790 5790 5790 5790 5791 5792 5793 5794 5795
5823 5821 5819 5817 5815 5813 5811 5810 5808 5807 5805 5803 5801 5799 5797 5794 5793 5791 5790 5789 5788 5787 5785 5784 5784 5783 5783 5782 5782 5782 5782 5782 5782 5782 5783 5785 5786 5787
5817 5815 5813 5811 5809 5807 5805 5803 5802 5799 5798 5796 5794 5791 5789 5787 5785 5783 5782 5780 5779 5778 5777 5776 5775 5775 5775 5774 5773 5773 5773 5773 5774 5774 5775 5776 5778 5779
5810 5808 5806 5804 5802 5800 5798 5796 5794 5792 5790 5788 5786 5784 5781 5779 5777 5775 5773 5772 5770 5769 5769 5768 5767 5766 5766 5765 5765 5765 5765 5765 5766 5766 5767 5768 5769 5771
5804 5801 5799 5797 5795 5793 5790 5788 5786 5784 5781 5779 5778 5775 5773 5771 5769 5767 5765 5763 5762 5761 5760 5759 5758 5758 5757 5757 5757 5757 5756 5757 5757 5758 5759 5760 5761 5763
5797 5794 5791 5789 5787 5785 5782 5780 5777 5775 5772 5770 5768 5766 5764 5762 5760 5758 5756 5755 5753 5752 5751 5750 5750 5749 5748 5748 5748 5748 5748 5748 5749 5749 5750 5752 5753 5755
5790 5787 5784 5782 5779 5777 5774 5771 5769 5766 5763 5761 5759 5757 5755 5753 5751 5749 5747 5745 5745 5744 5742 5741 5741 5740 5740 5740 5740 5740 5740 5740 5740 5741 5742 5743 5745 5747
5782 5779 5776 5773 5771 5768 5765 5763 5759 5756 5754 5752 5750 5748 5746 5743 5742 5740 5738 5736 5735 5734 5733 5733 5732 5731 5731 5731 5731 5731 5731 5731 5732 5733 5734 5735 5737 5739
5774 5771 5768 5764 5762 5759 5756 5754 5750 5748 5745 5742 5740 5738 5736 5734 5732 5730 5728 5727 5726 5725 5724 5724 5723 5722 5722 5722 5723 5723 5723 5723 5723 5724 5725 5727 5729 5730
5765 5762 5759 5756 5753 5750 5747 5744 5741 5739 5736 5733 5731 5728 5726 5724 5722 5720 5719 5717 5716 5716 5715 5714 5714 5713 5713 5714 5714 5714 5714 5714 5715 5716 5717 5719 5721 5723
5756 5752 5750 5747 5744 5741 5738 5735 5732 5729 5727 5724 5722 5719 5717 5715 5713 5711 5709 5708 5707 5707 5706 5705 5705 5704 5705 5705 5705 5705 5706 5706 5707 5709 5710 5712 5714 5716
5747 5743 5740 5738 5735 5732 5729 5726 5723 5720 5718 5715 5713 5710 5708 5706 5704 5702 5700 5699 5698 5697 5697 5696 5696 5695 5696 5697 5697 5697 5698 5699 5700 5701 5703 5705 5707 5710
5738 5735 5732 5729 5726 5723 5720 5717 5714 5712 5709 5706 5704 5702 5699 5697 5695 5694 5692 5690 5689 5689 5688 5687 5687 5688 5688 5688 5689 5689 5690 5691 5692 5694 5696 5698 5701 5703
5729 5726 5723 5720 5717 5714 5711 5708 5706 5703 5701 5698 5696 5693 5691 5689 5687 5685 5684 5682 5681 5680 5680 5679 5679 5680 5680 5681 5681 5682 5683 5684 5686 5688 5690 5692 5694 5697
5720 5717 5714 5711 5708 5705 5702 5699 5697 5694 5692 5690 5687 5685 5682 5680 5678 5677 5676 5675 5674 5673 5672 5672 5672 5672 5673 5673 5674 5675 5676 5677 5679 5681 5683 5686 5688 5690
5711 5708 5705 5702 5699 5696 5693 5691 5688 5685 5683 5680 5678 5676 5674 5673 5671 5669 5668 5667 5666 5666 5665 5665 5665 5665 5665 5666 5667 5668 5669 5671 5672 5675 5677 5680 5682 5684
5703 5700 5697 5693 5690 5687 5685 5682 5680 5677 5675 5672 5670 5668 5667 5665 5663 5662 5660 5660 5659 5658 5658 5658 5658 5658 5659 5659 5660 5661 5663 5664 5666 5668 5671 5673 5676 5678
5695 5692 5688 5685 5682 5679 5677 5674 5672 5669 5667 5664 5662 5660 5659 5657 5656 5654 5653 5652 5652 5651 5651 5651 5651 5652 5652 5653 5654 5655 5657 5658 5660 5663 5665 5667 5670 5672
5687 5684 5681 5677 5674 5672 5669 5666 5664 5661 5659 5657 5655 5652 5651 5649 5648 5647 5646 5645 5645 5644 5644 5644 5644 5645 5646 5647 5648 5649 5651 5653 5655 5657 5659 5661 5663 5666
5679 5676 5673 5669 5666 5664 5661 5659 5656 5654 5651 5649 5647 5645 5643 5642 5641 5639 5638 5638 5638 5637 5637 5638 5638 5639 5639 5641 5642 5643 5645 5647 5649 5651 5653 5655 5658 5660
5671 5668 5665 5662 5659 5656 5654 5652 5649 5647 5645 5642 5640 5638 5636 5635 5634 5633 5632 5631 5631 5631 5631 5631 5632 5632 5633 5635 5636 5637 5639 5641 5643 5645 5647 5650 5651 5654
5663 5660 5657 5655 5652 5649 5647 5644 5642 5640 5638 5636 5634 5632 5630 5628 5627 5626 5626 5625 5624 5624 5625 5625 5625 5626 5627 5629 5630 5632 5633 5635 5637 5639 5641 5643 5645 5648